Location: Concepci�n
(32.5333°N, 117.1167°W)
Time: 23:39:50
(UTC+00:00)

Daily predictions for brighter satellites

Satellite Brightness Start Highest point End
(mag) Time Altitude Azimuth Time Altitude Azimuth Time Altitude Azimuth
Meteor 1-27 4.1 12:11:13 83° SSE 12:11:24 87° E 12:17:00 10° N
ISS -0.7 12:20:29 10° NNE 12:20:29 10° NNE 12:20:33 10° NNE
OAO 1 4.5 12:17:34 71° N 12:17:45 72° N 12:23:14 10° E
Cosmos 1244 Rocket 4.4 12:17:49 10° N 12:24:01 89° E 12:30:16 10° S
ALOS 3.5 12:19:39 10° N 12:22:03 30° N 12:22:03 30° N
Cosmos 2344 4.1 12:19:02 10° S 12:26:45 54° ESE 12:33:58 10° NE
NOSS 2-2 (D) 3.9 12:27:49 47° ENE 12:27:49 47° ENE 12:30:37 10° NE
Cosmos 1766 Rocket 3.7 12:22:47 10° N 12:27:15 71° E 12:31:40 10° SSE
Milstar 3 Cent rocket 3.4 12:26:14 22° S 12:27:25 24° SSE 12:31:29 10° ESE
Cosmos 2082 Rocket 3.5 12:33:02 24° NNW 12:33:02 24° NNW 12:36:00 10° N
CBERS 1 LM4 rocket 4.3 12:26:53 10° N 12:31:22 63° NW 12:31:22 63° NW
CZ-4B R/B 4.2 12:31:02 10° ESE 12:33:21 18° ENE 12:35:38 10° NNE
Cosmos 1461 3.5 12:34:49 26° N 12:37:04 58° ENE 12:41:12 10° SE
Meteor 2-15 Rocket 4.3 12:31:20 10° SSW 12:37:25 66° W 12:43:33 10° N
Okean 3 Rocket 3.4 12:33:16 10° N 12:37:41 83° W 12:42:07 10° S
FENGYUN 3A 3.8 12:32:57 10° N 12:38:01 47° WNW 12:38:01 47° WNW
SeaSat 1 2.3 12:34:34 10° SSE 12:39:29 78° WSW 12:42:38 23° NNW
DELTA 2 R/B (1) 3.8 12:39:11 47° WSW 12:39:52 50° SSW 12:45:14 10° SE
Meteor 1-31 Rocket 2.8 12:35:59 10° NNE 12:39:54 79° ESE 12:41:55 27° S
Meteor 2-3 Rocket 3.7 12:35:32 10° NNW 12:41:08 59° W 12:46:46 10° S
Cosmos 292 Rocket 3.7 12:36:41 10° NNW 12:41:30 85° ENE 12:46:18 10° SSE
CZ-3 Stage 3 3.1 12:45:08 14° S 12:45:08 14° S 12:45:39 10° SSE
CZ-4B R/B 3.5 12:40:52 10° N 12:44:41 87° WNW 12:45:46 45° SSW
Cosmos 1408 Rocket 4.2 12:41:03 10° N 12:45:25 56° E 12:49:44 10° SSE
Cosmos 1553 Rocket 4.0 12:39:08 10° SSW 12:45:26 60° W 12:51:44 10° N
Cosmos 1980 Rocket 2.1 12:40:09 10° NNW 12:45:52 79° WSW 12:51:31 10° SSE
Meteor 1-4 Rocket 3.8 12:42:50 10° SSE 12:46:23 43° E 12:49:56 10° NNE
Cosmos 1417 Rocket 4.4 12:40:40 10° SSW 12:46:47 69° W 12:53:02 10° N
Meteor 2-2 Rocket 4.4 12:42:55 10° S 12:48:47 82° E 12:54:47 10° N
Cosmos 1842 Rocket 3.4 12:49:54 10° S 12:54:17 79° W 12:58:40 10° N
Cosmos 2322 Rocket 4.4 12:50:09 10° N 12:54:41 24° ENE 12:59:11 10° ESE
DELTA 4 R/B 3.0 12:55:21 21° SSW 12:55:21 21° SSW 12:56:53 10° SSE
Hubble Space Telescope 2.8 12:57:42 15° SSW 12:57:42 15° SSW 12:59:58 10° SSE
Cosmos 1452 Rocket 3.9 12:57:43 27° NW 12:59:46 38° W 13:04:36 10° SSW
Cosmos 2221 2.4 12:55:28 10° SSW 12:59:49 70° W 13:04:12 10° N
Cosmos 220 Rocket 4.0 12:55:54 10° NNW 13:00:17 87° ENE 13:04:42 10° SSE
H-2A R/B 2.2 12:58:50 10° S 13:03:05 48° W 13:07:16 10° NNW
Iridium 4 Rocket 4.3 13:04:34 28° W 13:04:34 28° W 13:08:49 10° NNW
ADEOS 3.8 13:04:18 10° N 13:09:16 46° WNW 13:14:13 10° SW
Cosmos 1697 Rocket 3.9 13:10:48 20° WSW 13:10:48 20° WSW 13:13:59 10° SSW
SL-16 R/B 3.3 13:08:47 10° N 13:14:13 46° ENE 13:19:38 10° SE
NOSS 2-2 (C) 3.8 13:15:04 29° W 13:15:46 31° NW 13:18:57 10° N
Cosmos 1110 Rocket 4.0 13:12:09 10° NNW 13:17:22 62° WSW 13:22:29 10° S
SJ-12 4.4 13:16:04 10° N 13:19:50 37° WNW 13:23:35 10° SW
H-2A R/B 2.7 13:18:34 10° N 13:22:28 75° WNW 13:26:20 10° SSW
Meteosat 1 Rocket2 3.8 13:18:37 17° WSW 13:22:35 49° S 13:26:33 10° ESE
S3M 4.4 13:22:38 10° SW 13:28:13 37° W 13:33:50 10° NNW
Cosmos 1689 Rocket 3.3 13:35:05 10° SSE 13:37:47 43° ENE 13:40:29 10° N
ASTRO E2 3.3 13:34:06 11° WSW 13:37:48 51° SSE 13:41:40 10° E
COSMO-SKYMED 1 2.9 13:33:51 10° S 13:37:59 44° W 13:42:08 10° NNW
Meteor PRIRODA 4.1 13:35:40 10° N 13:39:07 38° WNW 13:42:34 10° SW
YAOGAN 6 2.5 13:36:58 10° N 13:40:28 63° WNW 13:43:55 10° SSW
X-37B 3.4 13:43:25 10° N 13:43:49 10° N 13:44:12 10° NNE
Cosmos 1745 Rocket 4.5 13:38:59 10° NNW 13:44:41 38° W 13:50:26 10° SSW
NOAA 6 4.4 13:40:18 10° NNE 13:45:28 73° ESE 13:50:34 10° S
ATLAS CENTAUR R/B 2.1 13:42:43 10° NNW 13:46:47 58° ENE 13:51:07 10° SE
H-2A R/B 4.2 13:43:56 10° NNE 13:47:46 38° E 13:51:28 10° SSE
Cosmos 1151 Rocket 4.5 13:46:55 10° SSE 13:51:04 44° E 13:55:12 10° NNE
Cosmos 1743 Rocket 4.0 13:50:40 10° NNW 13:54:52 41° W 13:59:03 10° SSW
Cosmos 1805 Rocket 3.6 13:51:33 10° N 13:56:01 85° W 14:00:27 10° S
COSMOS 2487 3.2 13:53:15 10° S 13:56:35 56° ESE 13:59:55 10° NNE
CZ-4B R/B 4.1 13:52:55 10° NNW 13:56:36 26° WNW 14:00:20 10° SW
Cosmos 1709 Rocket 4.2 13:52:08 10° NNW 13:58:18 55° W 14:04:29 10° SSW
Cosmos 1782 4.5 13:55:16 10° SSE 13:58:58 40° E 14:02:40 10° NNE
